Weather History for Ord, NE

Change the Weather History Date:

Thursday, November 1, 2012

  Actual Average Record
Temperature  
Mean Temperature 46 °F 43 °F  
Max Temperature 54 °F 56 °F 73 °F (2008)
Min Temperature 37 °F 31 °F 9 °F (2002)
Degree Days  
Heating Degree Days 19 22  
Month to date heating degree days 19 22  
Since 1 July heating degree days 710 642  
Cooling Degree Days 0 0  
Month to date cooling degree days 0 0  
Year to date cooling degree days 1220 845  
Moisture  
Dew Point 38 °F    
Average Humidity 80    
Maximum Humidity 96    
Minimum Humidity 63    
Precipitation  
Precipitation 0.00 in 0.05 in 1.00 in (2000)
Month to date precipitation 0.00 0.05  
Year to date precipitation 11.37 23.33  
Sea Level Pressure  
Sea Level Pressure 30.01 in    
Wind  
Wind Speed 7 mph (NNE)    
Max Wind Speed 18 mph    
Max Gust Speed 22 mph    
Visibility 6 miles    
Events      
T = Trace of Precipitation, MM = Missing Value Source: NWS Daily Summary

Daily Weather History Graph

Daily Weather History Graph

Search for Another Location

Airport:

Trip Planner

Search our weather history database for the weather conditions in past years. The results will help you decide how hot, cold, wet, or windy it might be!

Date:

Astronomy

Nov. 01, 2012 Rise Set
Actual Time 8:08 AM CDT 6:29 PM CDT
Civil Twilight 7:39 AM CDT 6:58 PM CDT
Nautical Twilight 7:06 AM CDT 7:31 PM CDT
Astronomical Twilight 6:34 AM CDT 8:03 PM CDT
Moon 8:26 PM CDT (11/1) 10:43 AM CDT (11/1)
Length of Visible Light 11h 19m
Length of Day
10h 21m
Waning Gibbous, 93% of the Moon is Illuminated
Nov 1
Waning Gibbous
Nov 6
Last Quarter
Nov 13
New
Nov 20
First Quarter
Nov 28
Full

Hourly Weather History & Observations

Time (CDT) Temp. Windchill Dew Point Humidity Pressure Visibility Wind Dir Wind Speed Gust Speed Precip Events Conditions
12:53 AM 37.9 °F - 34.0 °F 86% 29.99 in 10.0 mi Calm Calm - N/A   Clear
1:53 AM 37.9 °F 34.4 °F 34.0 °F 86% 29.98 in 10.0 mi NNW 4.6 mph - N/A   Clear
2:53 AM 41.0 °F 35.2 °F 35.1 °F 79% 29.99 in 10.0 mi NW 9.2 mph - N/A   Clear
3:53 AM 45.0 °F 38.9 °F 37.9 °F 76% 29.99 in 10.0 mi NNW 12.7 mph - N/A   Clear
4:53 AM 43.0 °F 35.7 °F 37.9 °F 82% 29.99 in 10.0 mi NW 15.0 mph - N/A   Clear
5:53 AM 41.0 °F - 37.0 °F 86% 30.01 in 10.0 mi Calm Calm - N/A   Clear
6:53 AM 37.9 °F 33.5 °F 36.0 °F 93% 30.04 in 10.0 mi NW 5.8 mph - N/A   Clear
7:24 AM 39.2 °F 31.2 °F 37.4 °F 93% 30.02 in 7.0 mi NNW 13.8 mph - N/A   Scattered Clouds
7:33 AM 39.2 °F 31.6 °F 37.4 °F 93% 30.02 in 7.0 mi NNW 12.7 mph - N/A   Mostly Cloudy
7:53 AM 41.0 °F 33.5 °F 39.0 °F 93% 30.05 in 5.0 mi NNW 13.8 mph - N/A   Overcast
8:17 AM 41.0 °F 33.5 °F 39.2 °F 93% 30.02 in 4.0 mi North 13.8 mph - N/A   Overcast
8:30 AM 41.0 °F 34.7 °F 39.2 °F 93% 30.03 in 2.5 mi North 10.4 mph - N/A   Overcast
8:53 AM 41.0 °F 33.9 °F 39.9 °F 96% 30.07 in 2.5 mi NNW 12.7 mph - N/A   Overcast
9:53 AM 43.0 °F 36.4 °F 41.0 °F 93% 30.08 in 2.5 mi North 12.7 mph - N/A   Overcast
10:53 AM 43.0 °F 37.2 °F 41.0 °F 93% 30.10 in 2.5 mi NNW 10.4 mph - N/A   Overcast
11:12 AM 42.8 °F 37.0 °F 39.2 °F 87% 30.06 in 3.0 mi North 10.4 mph - N/A   Overcast
11:19 AM 42.8 °F 38.6 °F 41.0 °F 93% 30.06 in 2.5 mi North 6.9 mph - N/A   Overcast
11:27 AM 42.8 °F 38.6 °F 39.2 °F 87% 30.06 in 3.0 mi North 6.9 mph - N/A   Overcast
11:53 AM 44.1 °F 39.5 °F 39.9 °F 85% 30.09 in 3.0 mi North 8.1 mph - N/A   Overcast
12:53 PM 45.0 °F 41.8 °F 39.9 °F 82% 30.07 in 4.0 mi ENE 5.8 mph - N/A   Haze
1:20 PM 46.4 °F 42.9 °F 39.2 °F 76% 30.02 in 5.0 mi NE 6.9 mph - N/A   Haze
1:53 PM 48.9 °F - 41.0 °F 74% 30.04 in 5.0 mi Calm Calm - N/A   Haze
2:10 PM 50.0 °F - 41.0 °F 71% 29.99 in 6.0 mi Variable 5.8 mph - N/A   Haze
2:53 PM 52.0 °F - 39.9 °F 63% 30.00 in 7.0 mi ENE 5.8 mph - N/A   Clear
3:53 PM 52.0 °F - 39.9 °F 63% 29.98 in 7.0 mi ENE 6.9 mph - N/A   Clear
4:53 PM 52.0 °F - 39.9 °F 63% 29.97 in 8.0 mi ESE 6.9 mph - N/A   Clear
5:53 PM 50.0 °F - 39.9 °F 68% 29.96 in 7.0 mi East 4.6 mph - N/A   Clear
6:53 PM 46.9 °F - 39.0 °F 74% 29.97 in 7.0 mi ESE 4.6 mph - N/A   Clear
7:53 PM 43.0 °F 41.3 °F 37.9 °F 82% 29.99 in 7.0 mi ESE 3.5 mph - N/A   Clear
8:53 PM 42.1 °F 37.1 °F 37.9 °F 85% 29.96 in 6.0 mi ESE 8.1 mph - N/A   Clear
9:53 PM 39.9 °F 35.1 °F 37.0 °F 89% 29.96 in 5.0 mi ESE 6.9 mph - N/A   Clear
10:53 PM 39.0 °F 35.7 °F 37.0 °F 93% 29.95 in 4.0 mi SE 4.6 mph - N/A   Clear
11:27 PM 37.4 °F 32.8 °F 35.6 °F 93% 29.92 in 3.0 mi ESE 5.8 mph - N/A   Scattered Clouds
11:36 PM 37.4 °F 34.9 °F 35.6 °F 93% 29.92 in 3.0 mi East 3.5 mph - N/A   Mostly Cloudy
11:53 PM 37.9 °F 32.7 °F 36.0 °F 93% 29.96 in 3.0 mi ESE 6.9 mph - N/A   Overcast